Location: Unspecified
(0.0000°N, 0.0000°E)
Time: 15:48:07
(UTC+00:00)

ITUPSAT 1 - Pass Details

Date: 13 December 2017
Orbit: 701 x 714 km, 98.6° (Epoch: 16 July)

Event Time Altitude Azimuth Distance (km) Brightness Sun altitude
Rises 03:16:37 0° 173° (S) 3,100 ? -35.7°
Reaches altitude 10° 03:18:54 10° 175° (S) 2,178 ? -35.2°
Enters shadow 03:19:28 13° 176° (S) 1,951 ? -35.1°
